DECAYED

COSMOS 1408 DEB, 50351 (Decayed)

Orbit data source: Space-Track

COSMOS 1408 DEB, 50351 was space debris in LEO originally from a launch on Thu, 16 Sep 1982 UTC launched from the Plesetsk Missile And Space Complex (PKMTR). Cosmos 1408 debris is a result of deliberate destruction of the defunct Soviet-era reconnaissance satellite Cosmos 1408 by a Russian anti-satellite missile in 2021. This event added many debris pieces to Earth's orbit, complicating space navigation and increasing collision risks for operational satellites and the International Space Station. The Cosmos 1408 debris has heightened concerns about space safety and militarization, emphasizing the urgent need for comprehensive space debris management strategies.

Loading next visibility...
Identifier
50351, 1982-092ABM
Orbit
Decayed
Country
Flag of CISCIS
Related business
Manufacturer
Yuzhnoe
Mission
Decayed spacecraft
Bus & Motor
Unknown
Mass
Unknown
Launch date (UTC)
1982-09-16 (44 years ago)
Launch vehicle
Unknown
Launch site
Plesetsk Missile And Space Complex (PKMTR)
Object type
Payload
Rocket body
Debris
Shape & HBR
Unknown shape, 0.1 m
Radar Cross Section
Medium (>0.1 m² and <1 m²)

Expand to show TLE details & history
Last TLE update: 1 year ago

TLE from 1 year ago
0 COSMOS 1408 DEB
1 50351U 82092ABM 25036.32314034  .02512737  86963-2  27154-2 0  9993
2 50351  82.4785  57.5911 0011508 311.1899  48.8392 16.12056533177398
Epoch: 2025-02-05T07:45Z
TLE epoch observation values (Epoch: 2025-02-05T07:45:19.325Z)
Latitude
-0.00001°
Longitude
165.54485°
Altitude
239.408 km
Speed
7.766 km/s
True Right ascension
03h 50m 21s
True Declination
0° 00' 00"
Sunlit
Object was in daylight at epoch
Visualization orbit readout
Latitude
Unknown
Longitude
Unknown
Altitude
Unknown
Speed
Unknown
Apparent Right ascension
Unknown
Apparent Declination
Unknown
Sunlit
N/A
Visualization observer readout
Local Sidereal Time
21:58:58
Azimuth
Unknown
Elevation
Unknown
Doppler factor
Unknown
Orbital elements
Apogee altitude
245.671 km
Perigee altitude
230.443 km
Semi-major axis
6,616.194 km
Eccentricity
0.00115
Inclination
82.4785°
RAAN
57.5911°
Arg. of periapsis
311.1899°
True anomaly
48.93858°
Mean anomaly
48.8392°
Eccentric anomaly
48.88888°
Mean motion
4.03302 °/min
Orbital period
89.26 mins
BSTAR
0.0027154

Documentation

Showing up to 5 results
|